Eaton, Ohio, United States (45320)
Lat: 39.74N, Lon: 84.64W
Wx Zone: OHZ060
Local Info
Past Weather Observations for Today

NOTE: This archive is for the closest National Weather Service station to Eaton. Information may differ from the station used for current weather conditions.

Time Weather Temperature Dewpoint Humidity Pressure Winds Precip Visibility
19:53
Clear
59°F / 15°C 25°F / -4°C 27% 29.83 in
(1010 mb)
E 5.8 mph
(E 9 kph)
- 10SM
18:53
Clear
61°F / 16°C 25°F / -4°C 25% 29.86 in
(1011 mb)
ESE 8.1 mph
(ESE 13 kph)
- 10SM
17:53
Clear
63°F / 17°C 25°F / -4°C 24% 29.89 in
(1012 mb)
SE 11.5 mph
(SE 19 kph)
- 10SM
16:53
Clear
64°F / 18°C 25°F / -4°C 22% 29.92 in
(1013 mb)
SE 9.2 mph
(SE 15 kph)
- 10SM
15:53
Partly Cloudy
63°F / 17°C 25°F / -4°C 24% 29.95 in
(1014 mb)
SE 9.2 mph
(SE 15 kph)
- 10SM
14:53
Clear
63°F / 17°C 25°F / -4°C 24% 29.95 in
(1014 mb)
SE 10.4 mph
(SE 17 kph)
- 10SM
13:53
Clear
61°F / 16°C 25°F / -4°C 25% 29.98 in
(1015 mb)
ESE 11.5 mph
(ESE 19 kph)
- 10SM
12:53
Clear
57°F / 14°C 21°F / -6°C 25% 30.01 in
(1016 mb)
SE 11.5 mph
(SE 19 kph)
- 10SM
11:53
Clear
57°F / 14°C 21°F / -6°C 25% 30.06 in
(1018 mb)
E 11.5 mph
(E 19 kph)
- 10SM
10:53
Partly Cloudy
55°F / 13°C 21°F / -6°C 26% 30.09 in
(1019 mb)
ESE 15 mph
(ESE 24 kph)
- 10SM
09:53
Clear
52°F / 11°C 19°F / -7°C 28% 30.09 in
(1019 mb)
SE 17.3 mph
(SE 28 kph)
- 10SM
08:53
Mostly Cloudy
48°F / 9°C 25°F / -4°C 40% 30.12 in
(1020 mb)
ESE 12.7 mph
(ESE 20 kph)
- 10SM
07:53
Clear
46°F / 8°C 27°F / -3°C 46% 30.12 in
(1020 mb)
SE 13.8 mph
(SE 22 kph)
- 10SM
06:53
Overcast
46°F / 8°C 28°F / -2°C 50% 30.12 in
(1020 mb)
ESE 8.1 mph
(ESE 13 kph)
- 10SM
05:53
Overcast
45°F / 7°C 28°F / -2°C 53% 30.09 in
(1019 mb)
E 8.1 mph
(E 13 kph)
- 10SM
04:53
Mostly Cloudy
45°F / 7°C 28°F / -2°C 53% 30.09 in
(1019 mb)
E 9.2 mph
(E 15 kph)
- 10SM
03:53
Mostly Cloudy
46°F / 8°C 28°F / -2°C 50% 30.06 in
(1018 mb)
E 9.2 mph
(E 15 kph)
- 10SM
02:53
Overcast
46°F / 8°C 32°F / 0°C 57% 30.06 in
(1018 mb)
E 8.1 mph
(E 13 kph)
- 10SM
01:53
Overcast
46°F / 8°C 34°F / 1°C 62% 30.06 in
(1018 mb)
E 9.2 mph
(E 15 kph)
- 10SM
00:53
Clear
46°F / 8°C 34°F / 1°C 62% 30.09 in
(1019 mb)
E 9.2 mph
(E 15 kph)
- 10SM
Time Weather Temperature Dewpoint Humidity Pressure Winds Precip Visibility


Weather for websites

WeatherForYou.com, LLC is not responsible for any damages or problems caused by this service. Current weather conditions are obtained from the closest station including government and personal stations which may have varying degrees of accuracy. Weather forecasts are derived from the NOAA NDFD. Like all things, this site belongs to Jesus Christ... He just trusts me to maintain it. If you have any questions or comments email webmaster@weatherforyou.com

Copyright © 2014, WeatherForYou.com LLC. All rights reserved.